Zurück zum Katalog

SL-14 DEB

AktivPO
NORAD 35530·DEBRIS·🇷🇺 Russia

Gestartet Sep 28, 1991 von Plesetsk Cosmodrome

Loading…

Nächste Überflüge (nächste 24 Stunden)

TLE

AktuellSource: Space-Track

Epoche: Sep 13, 2026, 18:57 UTC

1 35530U 91068AX  26256.79022959  .00000073  00000-0  44146-3 0  9996
2 35530  82.7017 255.8233 0027671  17.8160 158.4135 12.44603782590151

Verfolge SL-14 DEB in Echtzeit mit AllMySat

Download on the App Store